AAL2430 KDFW-KSFO

Flight info

Callsign AAL2430
Flight time N/A
Altitude 36000
Route HRPER3 HULZE FTI J58 RSK HASSL Q130 ROCCY Q164 KATTS Q136 RUMPS OAL INYOE DYAMD5
Aircraft B720/M-SDFGHRWY/C

Departure

Time 2026-05-06 23:14
Airport Dallas Fort Worth International Airport (KDFW)

Arrival

Time N/A
Airport San Francisco International Airport (KSFO)
Time Latitude Longitude Altitude Speed Heading
2026-05-06 23:07 32.89101 -97.04891 617 ft 15 kts 180°
2026-05-06 23:07 32.89049 -97.04891 617 ft 14 kts 180°
2026-05-06 23:07 32.88952 -97.04891 617 ft 13 kts 180°
2026-05-06 23:07 32.88861 -97.04891 617 ft 12 kts 180°
2026-05-06 23:08 32.88779 -97.04893 617 ft 11 kts 181°
2026-05-06 23:08 32.88706 -97.04894 617 ft 10 kts 180°
2026-05-06 23:08 32.88640 -97.04894 617 ft 8 kts 180°
2026-05-06 23:08 32.88583 -97.04894 617 ft 7 kts 180°
2026-05-06 23:09 32.88534 -97.04894 617 ft 6 kts 179°
2026-05-06 23:09 32.88491 -97.04894 617 ft 7 kts 179°
2026-05-06 23:09 32.88423 -97.04893 617 ft 12 kts 179°
2026-05-06 23:09 32.88319 -97.04894 617 ft 16 kts 181°
2026-05-06 23:10 32.88212 -97.04895 617 ft 14 kts 180°
2026-05-06 23:10 32.88112 -97.04894 617 ft 13 kts 180°
2026-05-06 23:10 32.88022 -97.04894 617 ft 9 kts 180°
2026-05-06 23:10 32.87958 -97.04894 617 ft 8 kts 180°
2026-05-06 23:11 32.87912 -97.04903 617 ft 4 kts 237°
2026-05-06 23:11 32.87910 -97.04939 617 ft 4 kts 271°
2026-05-06 23:11 32.87910 -97.04968 617 ft 1 kts 271°
2026-05-06 23:11 32.87910 -97.04977 617 ft 3 kts 271°
2026-05-06 23:12 32.87911 -97.05006 617 ft 6 kts 271°
2026-05-06 23:12 32.87926 -97.05083 617 ft 11 kts 328°
2026-05-06 23:12 32.87997 -97.05095 617 ft 9 kts
2026-05-06 23:12 32.88019 -97.05094 617 ft 0 kts
2026-05-06 23:13 32.88038 -97.05093 617 ft 11 kts
2026-05-06 23:13 32.88288 -97.05087 617 ft 62 kts 359°
2026-05-06 23:13 32.88895 -97.05084 618 ft 111 kts
2026-05-06 23:13 32.89794 -97.05086 687 ft 140 kts
2026-05-06 23:14 32.90752 -97.05133 1008 ft 137 kts 357°
2026-05-06 23:14 32.91790 -97.05225 1456 ft 162 kts 358°
2026-05-06 23:14 32.92951 -97.05299 2220 ft 180 kts 358°
2026-05-06 23:14 32.94225 -97.05373 3129 ft 193 kts 359°
2026-05-06 23:15 32.95513 -97.05445 4356 ft 189 kts 359°
2026-05-06 23:15 32.96814 -97.05479 5297 ft 197 kts 360°
2026-05-06 23:15 32.98164 -97.05524 6350 ft 198 kts 357°
2026-05-06 23:15 32.99493 -97.05634 7438 ft 196 kts 354°
2026-05-06 23:16 33.00851 -97.05735 8358 ft 201 kts 358°
2026-05-06 23:16 33.02248 -97.05632 9230 ft 207 kts
2026-05-06 23:16 33.03684 -97.05405 10032 ft 220 kts
2026-05-06 23:16 33.05283 -97.05181 10796 ft 236 kts 358°
2026-05-06 23:17 33.06793 -97.05433 11942 ft 203 kts 326°
2026-05-06 23:17 33.07647 -97.06602 12903 ft 191 kts 286°
2026-05-06 23:17 33.07858 -97.08210 13535 ft 206 kts 275°
2026-05-06 23:17 33.08008 -97.10031 14000 ft 232 kts 278°
2026-05-06 23:18 33.08256 -97.12033 14486 ft 257 kts 279°
2026-05-06 23:18 33.08444 -97.14239 14950 ft 282 kts 268°
2026-05-06 23:18 33.08128 -97.16615 15424 ft 300 kts 259°
2026-05-06 23:18 33.07685 -97.19114 15862 ft 302 kts 260°
2026-05-06 23:19 33.07255 -97.21716 16332 ft 321 kts 260°
2026-05-06 23:19 33.06819 -97.24435 16895 ft 343 kts 260°
2026-05-06 23:19 33.06242 -97.27219 17425 ft 354 kts 252°
2026-05-06 23:19 33.05259 -97.29926 17958 ft 356 kts 248°
2026-05-06 23:20 33.04219 -97.32636 18544 ft 358 kts 248°
2026-05-06 23:20 33.03189 -97.35376 19264 ft 360 kts 249°
2026-05-06 23:20 33.02159 -97.38126 19989 ft 355 kts 249°
2026-05-06 23:20 33.01178 -97.40749 20685 ft 343 kts 249°
2026-05-06 23:21 33.00225 -97.43295 21385 ft 331 kts 249°
2026-05-06 23:21 32.99301 -97.45762 22085 ft 319 kts 250°
2026-05-06 23:21 32.98413 -97.48132 22781 ft 306 kts 250°
2026-05-06 23:21 32.97566 -97.50393 23345 ft 296 kts 250°
2026-05-06 23:22 32.96746 -97.52583 23759 ft 291 kts 251°
2026-05-06 23:22 32.95924 -97.54783 24173 ft 292 kts 251°
2026-05-06 23:22 32.95099 -97.56986 24585 ft 293 kts 251°
2026-05-06 23:22 32.94260 -97.59222 25001 ft 294 kts 251°
2026-05-06 23:23 32.93408 -97.61496 25428 ft 301 kts 251°
2026-05-06 23:23 32.92543 -97.63802 25851 ft 308 kts 251°
2026-05-06 23:23 32.91663 -97.66147 26280 ft 314 kts 251°
2026-05-06 23:23 32.90753 -97.68566 26726 ft 321 kts 251°
2026-05-06 23:24 32.89852 -97.70998 27163 ft 326 kts 254°
2026-05-06 23:24 32.89467 -97.73635 27616 ft 321 kts 277°
2026-05-06 23:24 32.89996 -97.76200 28104 ft 325 kts 288°
2026-05-06 23:24 32.90789 -97.78732 28545 ft 331 kts 289°
2026-05-06 23:25 32.91621 -97.81335 28987 ft 338 kts 289°
2026-05-06 23:25 32.92482 -97.84012 29435 ft 349 kts 290°
2026-05-06 23:25 32.93373 -97.86764 29880 ft 359 kts 290°
2026-05-06 23:25 32.94291 -97.89586 30320 ft 369 kts 290°
2026-05-06 23:26 32.95244 -97.92510 30697 ft 380 kts 290°
2026-05-06 23:26 32.96213 -97.95479 31112 ft 389 kts 290°
2026-05-06 23:26 32.97201 -97.98511 31553 ft 394 kts 290°
2026-05-06 23:26 32.98208 -98.01597 32007 ft 398 kts 291°
2026-05-06 23:27 32.99229 -98.04729 32469 ft 400 kts 291°
2026-05-06 23:27 33.00246 -98.07854 32926 ft 402 kts 291°
2026-05-06 23:27 33.01273 -98.11009 33382 ft 403 kts 291°
2026-05-06 23:27 33.02283 -98.14118 33823 ft 403 kts 291°
2026-05-06 23:28 33.03312 -98.17286 34262 ft 403 kts 291°
2026-05-06 23:28 33.04322 -98.20399 34678 ft 403 kts 291°
2026-05-06 23:28 33.05324 -98.23482 35074 ft 403 kts 291°
2026-05-06 23:28 33.06337 -98.26589 35459 ft 403 kts 291°
2026-05-06 23:29 33.07366 -98.29751 35834 ft 403 kts 291°
2026-05-06 23:29 33.08373 -98.32846 36129 ft 405 kts 291°
2026-05-06 23:29 33.09406 -98.36025 36040 ft 413 kts 291°
2026-05-06 23:30 33.11531 -98.42572 36053 ft 422 kts 291°
2026-05-06 23:30 33.13661 -98.49147 36052 ft 426 kts 291°
2026-05-06 23:31 33.15802 -98.55773 36050 ft 427 kts 291°
2026-05-06 23:31 33.17934 -98.62382 36049 ft 427 kts 291°
2026-05-06 23:31 33.19002 -98.65700 36041 ft 416 kts 291°
2026-05-06 23:32 33.20044 -98.68941 36058 ft 414 kts 291°
2026-05-06 23:32 33.22109 -98.75372 36060 ft 415 kts 291°
2026-05-06 23:33 33.24188 -98.81858 36059 ft 415 kts 291°
2026-05-06 23:33 33.26255 -98.88324 36058 ft 415 kts 291°
2026-05-06 23:34 33.28165 -98.94309 36057 ft 411 kts 291°
2026-05-06 23:34 33.30187 -99.00659 36056 ft 407 kts 291°
2026-05-06 23:35 33.32179 -99.06926 36055 ft 402 kts 291°
2026-05-06 23:35 33.34142 -99.13113 36054 ft 398 kts 291°
2026-05-06 23:36 33.36100 -99.19296 36055 ft 399 kts 291°
2026-05-06 23:36 33.38065 -99.25518 36056 ft 399 kts 291°
2026-05-06 23:37 33.40013 -99.31696 36057 ft 399 kts 291°
2026-05-06 23:37 33.41966 -99.37901 36058 ft 399 kts 291°
2026-05-06 23:38 33.43905 -99.44076 36057 ft 399 kts 291°
2026-05-06 23:38 33.45853 -99.50291 36055 ft 399 kts 291°
2026-05-06 23:39 33.47651 -99.56578 36053 ft 399 kts 290°
2026-05-06 23:39 33.49411 -99.62871 36050 ft 399 kts 290°
2026-05-06 23:40 33.51189 -99.69257 36064 ft 399 kts 289°
2026-05-06 23:40 33.52967 -99.75655 36066 ft 399 kts 289°
2026-05-06 23:41 33.54749 -99.82085 36072 ft 399 kts 289°
2026-05-06 23:41 33.56580 -99.88706 36081 ft 399 kts 289°
2026-05-06 23:42 33.58388 -99.95263 36087 ft 399 kts 289°
2026-05-06 23:42 33.60128 -100.01584 36090 ft 399 kts 289°
2026-05-06 23:43 33.61882 -100.07973 36089 ft 399 kts 289°
2026-05-06 23:43 33.63622 -100.14325 36088 ft 399 kts 289°
2026-05-06 23:44 33.65358 -100.20671 36086 ft 399 kts 290°
2026-05-06 23:44 33.67731 -100.26672 36086 ft 399 kts 297°
2026-05-06 23:45 33.70287 -100.32527 36084 ft 399 kts 297°
2026-05-06 23:45 33.72870 -100.38458 36083 ft 399 kts 297°
2026-05-06 23:46 33.75438 -100.44364 36082 ft 399 kts 297°
2026-05-06 23:46 33.78014 -100.50301 36080 ft 399 kts 297°
2026-05-06 23:47 33.80599 -100.56268 36079 ft 399 kts 297°
2026-05-06 23:47 33.83164 -100.62199 36078 ft 399 kts 297°
2026-05-06 23:48 33.85760 -100.68142 36088 ft 395 kts 297°
2026-05-06 23:48 33.88357 -100.74208 36093 ft 398 kts 296°
2026-05-06 23:49 33.90892 -100.80220 36092 ft 400 kts 297°
2026-05-06 23:49 33.93467 -100.86145 36079 ft 398 kts 297°
2026-05-06 23:50 33.96015 -100.92065 36070 ft 397 kts 296°
2026-05-06 23:50 33.99848 -101.01012 36055 ft 384 kts 296°
2026-05-06 23:51 34.02272 -101.06808 36047 ft 380 kts 294°
2026-05-06 23:51 34.04659 -101.12373 36052 ft 368 kts 296°
2026-05-06 23:52 34.07030 -101.17939 36037 ft 351 kts 295°
2026-05-06 23:52 34.09274 -101.23175 36060 ft 363 kts 295°
2026-05-06 23:53 34.10444 -101.25924 36062 ft 376 kts 295°
2026-05-06 23:53 34.11666 -101.28801 36063 ft 387 kts 295°
2026-05-06 23:53 34.14159 -101.34680 36055 ft 398 kts 295°
2026-05-06 23:54 34.16654 -101.40577 36049 ft 397 kts 295°
2026-05-06 23:54 34.19162 -101.46515 36048 ft 397 kts 295°
2026-05-06 23:55 34.21650 -101.52419 36047 ft 397 kts 295°
2026-05-06 23:55 34.24165 -101.58400 36046 ft 397 kts 295°
2026-05-06 23:56 34.26688 -101.64408 36044 ft 397 kts 295°
2026-05-06 23:56 34.29123 -101.70386 36061 ft 396 kts 292°
2026-05-06 23:57 34.31316 -101.76559 36057 ft 396 kts 295°
2026-05-06 23:57 34.34051 -101.82406 36059 ft 397 kts 296°
2026-05-06 23:58 34.36645 -101.88351 36058 ft 397 kts 295°
2026-05-06 23:58 34.39160 -101.94310 36056 ft 397 kts 295°
2026-05-06 23:59 34.41676 -102.00338 36056 ft 396 kts 295°
2026-05-06 23:59 34.44170 -102.06343 36057 ft 396 kts 295°
2026-05-07 00:00 34.46670 -102.12379 36059 ft 396 kts 295°
2026-05-07 00:00 34.49127 -102.18324 36059 ft 396 kts 295°
2026-05-07 00:01 34.51582 -102.24275 36059 ft 396 kts 295°
2026-05-07 00:01 34.54038 -102.30238 36058 ft 396 kts 295°
2026-05-07 00:02 34.56497 -102.36221 36057 ft 396 kts 295°
2026-05-07 00:02 34.58945 -102.42185 36056 ft 396 kts 295°
2026-05-07 00:03 34.61396 -102.48170 36054 ft 396 kts 295°
2026-05-07 00:03 34.63842 -102.54150 36049 ft 396 kts 295°
2026-05-07 00:04 34.66279 -102.60123 36044 ft 396 kts 295°
2026-05-07 00:04 34.68720 -102.66115 36052 ft 396 kts 294°
2026-05-07 00:05 34.71155 -102.72102 36063 ft 396 kts 294°
2026-05-07 00:05 34.73589 -102.78097 36058 ft 396 kts 294°
2026-05-07 00:06 34.76019 -102.84093 36045 ft 396 kts 294°
2026-05-07 00:06 34.78523 -102.90283 36032 ft 396 kts 294°
2026-05-07 00:07 34.81004 -102.96428 36019 ft 396 kts 294°
2026-05-07 00:07 34.83448 -103.02486 36016 ft 395 kts 294°
2026-05-07 00:08 34.85871 -103.08511 36014 ft 393 kts 294°
2026-05-07 00:08 34.88277 -103.14501 36013 ft 392 kts 293°
2026-05-07 00:09 34.90674 -103.20488 36018 ft 395 kts 294°
2026-05-07 00:09 34.93086 -103.26520 36029 ft 399 kts 294°
2026-05-07 00:10 34.95533 -103.32652 36042 ft 403 kts 294°
2026-05-07 00:10 34.97987 -103.38808 36048 ft 407 kts 295°
2026-05-07 00:11 35.00487 -103.45096 36054 ft 412 kts 295°
2026-05-07 00:11 35.02969 -103.51342 36055 ft 415 kts 295°
2026-05-07 00:12 35.05508 -103.57741 36054 ft 418 kts 295°
2026-05-07 00:12 35.08050 -103.64167 36052 ft 418 kts 295°
2026-05-07 00:13 35.10589 -103.70597 36068 ft 418 kts 295°
2026-05-07 00:13 35.12022 -103.74237 36070 ft 417 kts 295°
2026-05-07 00:14 35.13028 -103.76794 36074 ft 418 kts 295°